[Iaude] MPEC G08: 2024 GA [a=1.28,e=0.21,i=2.5,H=27.3]
    mpec at cfa.harvard.edu 
    mpec at cfa.harvard.edu
       
    Tue Apr  2 20:27:38 EDT 2024
    
    
  
M.P.E.C. 2024-G08                                 Issued 2024 April 3, 00:26 UT
     The Minor Planet Electronic Circulars contain information on unusual
         minor planets, routine data on comets and natural satellites,
         and occasional editorial announcements.  They are published
    on behalf of Division F of the International Astronomical Union by the
          Minor Planet Center, Smithsonian Astrophysical Observatory,
                          Cambridge, MA 02138, U.S.A.
			  
             Prepared using the Tamkin Foundation Computer Network
                              MPC at CFA.HARVARD.EDU
            URL https://www.minorplanetcenter.net/    ISSN 1523-6714
                                    2024 GA                                     
Observations:
     K24G00A* C2024 04 01.26510509 56 21.667-14 53 09.45         19.91wXEG008F51
     K24G00A  C2024 04 01.27656609 56 35.856-14 53 48.34         19.55wXEG008F51
     K24G00A  C2024 04 01.28803109 56 50.018-14 54 26.39         19.78wXEG008F51
     K24G00A  C2024 04 01.33844709 57 52.335-14 57 04.29         19.49GVEG008F51
     K24G00A  C2024 04 01.33909409 57 53.136-14 57 06.26         19.71GVEG008F51
     K24G00A KB2024 04 01.52382 10 02 37.28 -15 08 35.1          19.3 GXEG008Q06
     K24G00A KB2024 04 01.52882 10 02 43.88 -15 08 50.6          19.4 GXEG008Q06
     K24G00A KB2024 04 01.96550610 14 19.95 -15 31 26.8          19.2 GXEG008958
     K24G00A KB2024 04 01.96991710 14 26.52 -15 31 38.5          19.1 GXEG008958
     K24G00A KB2024 04 01.97428410 14 32.90 -15 31 48.8          19.4 GXEG008958
     K24G00A KC2024 04 02.38331 10 26 50.48 -15 35 31.2          18.9 rZEG008R56
     K24G00A KC2024 04 02.39028 10 27 01.59 -15 35 51.1          18.8 rZEG008R56
     K24G00A KC2024 04 02.39720 10 27 12.61 -15 36 10.9          18.5 rZEG008R56
     K24G00A KC2024 04 02.51880 10 30 38.23 -15 43 32.4          19.8 VqEG008E23
     K24G00A KC2024 04 02.52575 10 30 49.26 -15 43 49.5          18.9 VqEG008E23
     K24G00A KC2024 04 02.53269 10 31 00.35 -15 44 06.1          19.5 VqEG008E23
     K24G00A KC2024 04 02.86384610 41 40.79 -16 12 24.1          18.6 GVEG008L01
     K24G00A KC2024 04 02.86532610 41 43.34 -16 12 27.8          18.7 GVEG008L01
     K24G00A KC2024 04 02.86692810 41 46.10 -16 12 31.6          18.4 GVEG008L01
     K24G00A KC2024 04 02.86828610 41 48.43 -16 12 35.1          18.6 GVEG008L01
     K24G00A KC2024 04 02.86977010 41 50.98 -16 12 38.6          18.6 GVEG008L01
     K24G00A KC2024 04 02.88886 10 42 25.66 -16 13 17.7          19.1 GVEG008104
     K24G00A KC2024 04 02.89244 10 42 31.84 -16 13 25.4                VEG008104
Observer details:
104 San Marcello Pistoiese.  Observers P. Bacci, M. Maestripieri.  Measurer P.
    Bacci.  0.60-m f/4.0 reflector + CCD.
958 Observatoire de Dax.  Observer P. Dupouy.  0.50-m f/4.5 Reflector + CMO.
E23 Arcadia.  Observer A. Hidas.  0.35-m f/1.9 reflector + CCD.
F51 Pan-STARRS 1, Haleakala.  Observers J. Herman, T. Lowe, P. Minguez, A.
    Schultz, I. Smith.  Measurers K. Chambers, T. de Boer, J. Fairlamb, H.
    Gao, M. Huber, C.-C. Lin, E. Magnier, Y. Ramanjooloo, R. Wainscoat, R.
    Weryk.  1.8-m Ritchey-Chretien + CCD.
L01 Visnjan Observatory, Tican.  Observers K. Korlevic, L. Poropat.  Measurer
    K. Korlevic.  1.0-m f/2.9 reflector + CCD.
Q06 Tarui Observatory, Tarui.  Observer H. Watanabe.  0.35-m f/1.9 Schmidt-
    Cassegrain + CMO.
R56 Scott Street Observatory, Lake Tekapo.  Observer A. Vilquin Barrajon.
    0.20-m f/8.1 reflector + CCD.
Orbital elements:
2024 GA                                                  Earth MOID = 0.0106 AU
Epoch 2024 Mar. 31.0 TT = JDT 2460400.5                 Bell                    
M   1.74236              (2000.0)            P               Q                  
n   0.67889737     Peri.  348.19771     -0.99210463     +0.12463234             
a   1.2821336      Node   198.97878     -0.11128627     -0.92623737             
e   0.2131146      Incl.    2.46213     -0.05782539     -0.35574023             
P   1.45           H   27.36          G   0.15           U   6                  
Residuals in seconds of arc
240401 F51  0.3+  0.1+    240401 958  0.4-  0.8-    240402 L01  0.5-  0.1+
240401 F51  0.2+  0.0     240401 958  2.0-  0.2+    240402 L01  0.4-  0.1+
240401 F51  0.1+  0.1+    240402 R56  0.4-  0.1+    240402 L01  0.3-  0.2+
240401 F51  0.1-  0.1+    240402 R56  0.1+  0.5+    240402 L01  0.3-  0.1+
240401 F51  0.1-  0.0     240402 R56  0.5+  0.6+    240402 L01  0.3-  0.3+
240401 Q06  0.2+  0.4+    240402 E23  0.3+  0.2+    240402 104  0.4-  0.3-
240401 Q06  0.0   0.2-    240402 E23  0.3+  0.3-    240402 104  0.0   0.5+
240401 958  0.9-  0.5-    240402 E23  0.9+  0.6-
Ephemeris:
2024 GA                  a,e,i = 1.28, 0.21, 2                   q = 1.0089
Date    TT    R. A. (2000) Decl.     Delta      r    Elong.  Phase     V
2024 03 04    07 25 15.6 -05 25 33   0.05858 1.0265   125.3    52.1    23.2
...
2024 03 19    07 45 35.5 -07 47 41   0.03377 1.0115   117.4    60.9    22.2
...
2024 03 27    08 31 54.1 -10 52 13   0.02079 1.0089   121.9    57.1    21.0
...
2024 04 02    10 15 30.4 -15 23 22   0.01270 1.0095   141.7    37.9    19.4
2024 04 03    10 46 03.2 -16 06 51   0.01178 1.0098   147.9    31.7    19.1
2024 04 04    11 21 20.2 -16 35 43   0.01109 1.0102   155.1    24.7    18.8
...
2024 04 10    15 01 14.9 -11 08 22   0.01298 1.0135   153.6    26.1    19.1
...
2024 04 18    16 51 49.1 -03 49 31   0.02455 1.0210   133.1    45.9    21.1
...
2024 05 03    17 33 57.6 -00 36 12   0.05055 1.0443   134.8    43.2    22.6
M. P. C. Staff               (C) Copyright 2024 MPC           M.P.E.C. 2024-G08
    
    
More information about the Iaude
mailing list